Location: Alpha Ridge Park
(39.3209°N, 76.9128°W)
Time: 00:15:23
(UTC-04:00)

Transit 2A - Pass Details

Date: 23 May 2019
Orbit: 593 x 966 km, 66.7° (Epoch: 16 June)

Event Time Altitude Azimuth Distance (km) Brightness Sun altitude
Rises 15:12:41 0° 343° (NNW) 3,596 9.4 56.8°
Reaches altitude 10° 15:18:22 10° 25° (NNE) 2,559 8.6 55.8°
Maximum altitude 15:19:09 10° 32° (NNE) 2,526 8.5 55.7°
Drops below altitude 10° 15:19:55 10° 40° (NE) 2,528 8.5 55.5°
Sets 15:25:14 0° 82° (E) 3,340 9.0 54.6°
